Total_Precipitation_Accumulation
0.00 0.00 0.00 0.00 0.00 0.00 0.00 0.00 0.00 0.00 0.00 0.00 0.00 0.00 0.00 0.01 0.00 0.04 0.04 0.10 0.10 0.36 0.79 1.51 1.12 0.50 0.16 0.14 0.13 0.01 0.01 0.01 0.01 0.00 0.00 0.00 0.01 0.00 0.00 0.00 0.01 0.01 0.01 0.00 0.01 0.00 0.01 0.01 0.00
0.00 0.00 0.00 0.00 0.00 0.00 0.00 0.00 0.00 0.00 0.00 0.00 0.00 0.00 0.00 0.02 0.01 0.15 0.17 0.12 0.10 0.51 1.21 1.32 2.07 1.25 0.91 0.69 0.76 0.82 0.37 0.24 0.04 0.00 0.00 0.01 0.01 0.00 0.01 0.01 0.01 0.01 0.01 0.00 0.01 0.01 0.01 0.01 0.00
0.00 0.00 0.00 0.00 0.00 0.00 0.00 0.00 0.00 0.00 0.00 0.00 0.00 0.01 0.02 0.11 0.16 0.14 0.17 0.21 0.20 0.27 0.46 0.93 1.63 1.43 1.00 1.10 1.12 1.65 1.98 1.85 0.89 0.18 0.06 0.05 0.03 0.03 0.02 0.01 0.01 0.01 0.01 0.01 0.01 0.01 0.01 0.00 0.00
0.00 0.00 0.00 0.00 0.00 0.00 0.00 0.00 0.00 0.00 0.00 0.00 0.00 0.01 0.13 0.31 0.15 0.12 0.26 0.17 0.15 0.21 0.32 0.80 1.06 0.89 0.59 1.05 1.43 1.49 2.15 3.34 4.03 3.24 1.31 0.44 0.16 0.06 0.03 0.03 0.03 0.01 0.02 0.02 0.01 0.01 0.00 0.00 0.00
0.00 0.00 0.00 0.00 0.00 0.00 0.00 0.00 0.00 0.00 0.00 0.00 0.00 0.00 0.07 0.24 0.03 0.06 0.12 0.27 0.21 0.32 0.70 0.93 1.34 3.60 2.36 2.42 1.67 1.30 1.42 2.42 4.61 4.65 2.94 1.49 0.61 0.39 0.21 0.03 0.01 0.01 0.01 0.02 0.01 0.00 0.00 0.00 0.00
0.00 0.00 0.00 0.00 0.00 0.00 0.00 0.00 0.00 0.00 0.00 0.03 0.11 0.06 0.04 0.01 0.01 0.08 0.16 0.21 0.22 0.35 0.57 0.91 1.11 2.49 4.75 3.53 2.57 1.78 1.33 1.16 1.49 2.06 1.49 1.30 1.05 0.74 0.48 0.19 0.06 0.01 0.01 0.01 0.00 0.00 0.00 0.00 0.00
0.00 0.00 0.00 0.00 0.00 0.00 0.00 0.00 0.00 0.00 0.00 0.01 0.02 0.03 0.13 0.31 0.21 0.19 0.16 0.14 0.16 0.25 0.42 0.49 0.62 0.95 2.89 5.01 5.21 3.18 2.41 1.57 1.37 1.33 1.49 0.84 0.91 0.58 0.41 0.25 0.06 0.00 0.00 0.00 0.00 0.00 0.00 0.00 0.00
0.00 0.00 0.00 0.00 0.00 0.00 0.00 0.00 0.00 0.00 0.00 0.00 0.06 0.30 0.39 0.07 0.05 0.05 0.09 0.05 0.05 0.14 0.22 0.35 0.48 0.57 0.77 1.88 3.33 3.82 2.78 2.33 2.07 1.32 1.40 1.38 1.02 0.58 0.37 0.27 0.12 0.00 0.00 0.00 0.00 0.00 0.00 0.00 0.00
0.00 0.00 0.00 0.00 0.00 0.00 0.00 0.00 0.00 0.00 0.00 0.00 0.05 0.08 0.02 0.03 0.01 0.06 0.10 0.05 0.06 0.07 0.17 0.31 0.26 0.19 0.23 0.47 1.15 1.98 2.05 2.33 2.47 2.01 1.18 1.77 1.76 0.63 0.39 0.22 0.11 0.00 0.00 0.00 0.00 0.00 0.00 0.00 0.00
0.00 0.00 0.00 0.00 0.00 0.00 0.00 0.00 0.00 0.00 0.00 0.00 0.00 0.01 0.00 0.01 0.01 0.03 0.05 0.05 0.06 0.07 0.08 0.09 0.09 0.11 0.20 0.18 0.29 0.56 1.35 2.12 2.19 2.79 1.33 1.21 2.07 0.92 0.46 0.22 0.07 0.00 0.00 0.00 0.00 0.00 0.00 0.00 0.00
0.00 0.00 0.00 0.00 0.00 0.00 0.00 0.00 0.00 0.00 0.00 0.00 0.00 0.01 0.01 0.02 0.01 0.00 0.01 0.02 0.04 0.05 0.04 0.04 0.05 0.10 0.14 0.15 0.14 0.19 0.60 1.42 1.50 2.47 1.97 0.64 0.99 1.02 0.58 0.20 0.06 0.00 0.00 0.00 0.00 0.00 0.00 0.00 0.00
0.00 0.00 0.00 0.00 0.00 0.00 0.00 0.00 0.00 0.00 0.01 0.01 0.00 0.02 0.02 0.02 0.02 0.00 0.00 0.01 0.02 0.05 0.05 0.04 0.02 0.07 0.15 0.16 0.13 0.17 0.44 0.82 0.85 1.09 2.15 0.87 0.66 0.63 0.52 0.12 0.02 0.00 0.00 0.00 0.00 0.00 0.00 0.00 0.00
0.00 0.00 0.00 0.00 0.00 0.00 0.00 0.00 0.00 0.02 0.36 0.38 0.08 0.02 0.01 0.01 0.00 0.01 0.00 0.01 0.02 0.03 0.09 0.08 0.03 0.03 0.05 0.16 0.11 0.14 0.61 0.68 0.55 0.53 0.93 0.90 0.74 0.38 0.34 0.19 0.01 0.00 0.00 0.00 0.00 0.00 0.00 0.00 0.00
0.00 0.00 0.00 0.00 0.00 0.00 0.00 0.00 0.00 0.01 0.37 0.18 0.04 0.01 0.00 0.00 0.00 0.01 0.01 0.02 0.04 0.04 0.06 0.15 0.07 0.14 0.06 0.07 0.12 0.23 0.51 0.51 0.40 0.38 0.41 0.42 0.54 0.31 0.22 0.16 0.01 0.00 0.00 0.00 0.00 0.00 0.00 0.00 0.00
0.00 0.00 0.00 0.00 0.00 0.00 0.00 0.00 0.00 0.00 0.05 0.06 0.00 0.00 0.00 0.00 0.00 0.00 0.00 0.01 0.03 0.07 0.09 0.12 0.15 0.04 0.04 0.03 0.09 0.20 0.53 0.49 0.34 0.21 0.22 0.24 0.21 0.22 0.13 0.06 0.02 0.02 0.00 0.00 0.00 0.00 0.00 0.00 0.00
0.00 0.00 0.00 0.00 0.00 0.00 0.00 0.00 0.00 0.00 0.01 0.03 0.04 0.01 0.00 0.00 0.00 0.00 0.00 0.00 0.02 0.05 0.09 0.09 0.12 0.05 0.10 0.05 0.08 0.17 0.33 0.51 0.29 0.15 0.15 0.20 0.10 0.09 0.08 0.05 0.04 0.05 0.01 0.00 0.00 0.00 0.00 0.00 0.00
0.00 0.00 0.00 0.00 0.00 0.00 0.00 0.00 0.00 0.00 0.00 0.06 0.10 0.04 0.00 0.00 0.00 0.00 0.00 0.00 0.01 0.02 0.09 0.12 0.13 0.11 0.08 0.10 0.07 0.17 0.28 0.35 0.25 0.12 0.10 0.16 0.10 0.08 0.03 0.03 0.03 0.04 0.02 0.00 0.00 0.00 0.00 0.00 0.00
0.00 0.00 0.00 0.00 0.00 0.00 0.00 0.00 0.00 0.00 0.00 0.06 0.15 0.09 0.00 0.00 0.00 0.00 0.00 0.00 0.00 0.01 0.03 0.11 0.14 0.16 0.14 0.16 0.18 0.29 0.35 0.34 0.25 0.16 0.11 0.11 0.09 0.06 0.02 0.03 0.02 0.02 0.01 0.00 0.00 0.00 0.00 0.00 0.00
0.00 0.00 0.00 0.00 0.00 0.00 0.00 0.00 0.00 0.00 0.10 0.09 0.14 0.07 0.01 0.00 0.00 0.00 0.00 0.00 0.00 0.01 0.02 0.05 0.12 0.14 0.14 0.16 0.25 0.38 0.39 0.23 0.19 0.17 0.13 0.09 0.08 0.02 0.01 0.03 0.03 0.01 0.00 0.00 0.01 0.01 0.00 0.00 0.00
0.00 0.00 0.00 0.00 0.00 0.00 0.00 0.00 0.00 0.00 0.00 0.02 0.02 0.03 0.02 0.00 0.00 0.00 0.00 0.00 0.00 0.01 0.02 0.02 0.04 0.06 0.10 0.09 0.17 0.23 0.27 0.21 0.14 0.13 0.12 0.10 0.05 0.03 0.02 0.05 0.01 0.01 0.01 0.00 0.00 0.00 0.00 0.00 0.00
0.00 0.00 0.00 0.00 0.00 0.00 0.00 0.00 0.00 0.00 0.01 0.01 0.01 0.01 0.01 0.00 0.00 0.00 0.00 0.00 0.00 0.01 0.01 0.01 0.00 0.01 0.06 0.11 0.25 0.32 0.35 0.23 0.18 0.09 0.04 0.04 0.03 0.03 0.03 0.08 0.02 0.00 0.02 0.00 0.00 0.00 0.00 0.00 0.00
0.00 0.00 0.00 0.00 0.00 0.00 0.00 0.00 0.00 0.00 0.00 0.00 0.00 0.00 0.00 0.00 0.00 0.00 0.00 0.00 0.00 0.00 0.00 0.02 0.01 0.00 0.02 0.05 0.13 0.16 0.15 0.09 0.05 0.02 0.01 0.01 0.00 0.01 0.00 0.02 0.00 0.00 0.01 0.01 0.01 0.03 0.03 0.02 0.04
0.00 0.00 0.00 0.00 0.00 0.00 0.00 0.00 0.00 0.00 0.00 0.00 0.00 0.00 0.00 0.00 0.00 0.00 0.00 0.00 0.00 0.00 0.00 0.01 0.01 0.01 0.01 0.02 0.06 0.13 0.06 0.02 0.03 0.00 0.00 0.00 0.02 0.00 0.00 0.01 0.01 0.00 0.00 0.02 0.08 0.08 0.11 0.23 0.34
0.00 0.00 0.00 0.00 0.00 0.00 0.00 0.01 0.00 0.00 0.00 0.00 0.00 0.00 0.00 0.00 0.00 0.00 0.00 0.00 0.00 0.00 0.00 0.00 0.01 0.01 0.00 0.01 0.02 0.05 0.08 0.03 0.02 0.01 0.00 0.00 0.00 0.02 0.01 0.00 0.00 0.04 0.05 0.13 0.18 0.17 0.14 0.20 0.26
0.00 0.00 0.00 0.01 0.00 0.00 0.00 0.00 0.00 0.00 0.00 0.00 0.00 0.00 0.00 0.00 0.00 0.00 0.00 0.00 0.00 0.00 0.00 0.00 0.00 0.01 0.01 0.01 0.02 0.04 0.04 0.11 0.02 0.00 0.00 0.00 0.00 0.01 0.03 0.04 0.04 0.09 0.17 0.21 0.16 0.15 0.16 0.21 0.25
0.00 0.00 0.00 0.01 0.02 0.02 0.01 0.00 0.00 0.00 0.00 0.00 0.00 0.00 0.00 0.00 0.00 0.00 0.00 0.00 0.00 0.00 0.00 0.00 0.00 0.00 0.01 0.00 0.01 0.02 0.01 0.02 0.09 0.01 0.00 0.00 0.00 0.00 0.01 0.07 0.12 0.15 0.14 0.14 0.17 0.20 0.22 0.25 0.31
0.00 0.00 0.00 0.00 0.02 0.05 0.01 0.00 0.00 0.00 0.00 0.00 0.00 0.00 0.00 0.00 0.00 0.00 0.00 0.00 0.00 0.00 0.00 0.00 0.00 0.00 0.00 0.00 0.00 0.01 0.05 0.04 0.01 0.04 0.02 0.04 0.05 0.04 0.06 0.14 0.17 0.19 0.16 0.15 0.19 0.24 0.31 0.38 0.38
0.00 0.00 0.00 0.00 0.02 0.04 0.00 0.00 0.00 0.00 0.00 0.00 0.00 0.00 0.00 0.00 0.00 0.00 0.00 0.00 0.00 0.00 0.00 0.01 0.02 0.01 0.01 0.00 0.00 0.00 0.02 0.12 0.10 0.09 0.18 0.26 0.36 0.29 0.31 0.32 0.31 0.28 0.25 0.18 0.19 0.16 0.19 0.22 0.22
0.00 0.00 0.00 0.00 0.00 0.00 0.00 0.00 0.00 0.00 0.00 0.00 0.00 0.00 0.00 0.00 0.00 0.00 0.01 0.01 0.01 0.01 0.02 0.03 0.03 0.06 0.16 0.19 0.07 0.01 0.00 0.04 0.32 0.54 0.80 0.78 0.78 0.83 0.70 0.60 0.54 0.48 0.42 0.41 0.34 0.23 0.20 0.21 0.22
0.00 0.00 0.00 0.00 0.00 0.00 0.00 0.00 0.00 0.00 0.00 0.00 0.00 0.00 0.00 0.00 0.00 0.00 0.00 0.01 0.03 0.01 0.00 0.01 0.04 0.13 0.53 0.78 0.66 0.44 0.39 0.53 0.81 1.15 1.20 0.98 0.85 0.68 0.60 0.50 0.31 0.25 0.22 0.18 0.15 0.15 0.16 0.18 0.25